Flag for Italy Weather past 2 weeks in Palermo, Italy

Now
66 °F

Partly sunny.


Feels Like: 66 °F
Forecast: 60 / 68 °F
Wind: 20 mph from Southwest

Location: Palermo / Punta Raisi

Current Time: Apr 27, 2015 at 5:40:11 PM

Latest Report: Apr 27, 2015 at 4:50 PM


Visibility: N/A

Pressure: 29.80 "Hg

Humidity: 73%

Dew point: 57 °F

Location of PalermoLocation

Historic Weather in Palermo — Graph

°F

Palermo temperature yesterday

Maximum temperature yesterday: 72 °F (at 6:20 PM)
Minimum temperature yesterday: 61 °F (at 12:50 AM)
Average temperature yesterday: 65 °F

Past Weeks' High & Low Weather Summary

 TemperatureHumidityPressure
High81 °F (Apr 17, 1:20 PM)100% (Apr 19, 3:50 AM)30.39 "Hg (Apr 19, 3:50 AM)
Low48 °F (Apr 13, 6:50 AM)20% (Apr 17, 1:20 PM)29.71 "Hg (Apr 27, 3:50 PM)
Average62 °F78%30.11 "Hg
* Reported Apr 12 4:20 PM — Apr 27 4:20 PM, Palermo, Weather by CustomWeather, © 2015

Note: Actual official high and low records may vary slightly from our data, if they occured in-between our weather recording intervals... More about our weather records

Advertising

Palermo weather history for previous 24 hours

 ConditionsComfort  
Time TempWeatherWind HumidityBarometerVisibility
4:20 PM
Mon, Apr 27
68 °FPartly sunny.21 mph64%29.74 "HgN/A
3:50 PM68 °FPartly sunny.15 mph69%29.71 "HgN/A
3:20 PM68 °FRain. Partly sunny.16 mph69%29.83 "Hg4 mi
2:50 PM68 °FScattered clouds.9 mph69%29.86 "HgN/A
2:20 PM66 °FPassing clouds.12 mph78%29.86 "HgN/A
1:50 PM66 °FPassing clouds.7 mph83%29.86 "HgN/A
12:50 PM66 °FSunny.2 mph83%29.83 "Hg10 mi
12:20 PM66 °FSunny.7 mph78%29.83 "Hg10 mi
11:50 AM64 °FSunny.9 mph78%29.83 "Hg10 mi
11:20 AM66 °FSunny.9 mph78%29.86 "Hg10 mi
10:50 AM64 °FScattered clouds.6 mph83%29.86 "HgN/A
10:20 AM66 °FSunny.7 mph73%29.86 "Hg10 mi
9:50 AM64 °FSunny.7 mph78%29.86 "Hg10 mi
9:20 AM66 °FSunny.5 mph73%29.86 "Hg10 mi
8:50 AM66 °FSunny.6 mph60%29.86 "Hg10 mi
8:20 AM63 °FSunny.5 mph77%29.83 "Hg10 mi
7:50 AM63 °FPassing clouds.7 mph77%29.86 "HgN/A
7:20 AM61 °FPassing clouds.5 mph83%29.86 "HgN/A
6:50 AM61 °FClear.7 mph77%29.86 "Hg10 mi
6:20 AM61 °FClear.3 mph72%29.86 "Hg10 mi
5:50 AM59 °FPassing clouds.3 mph77%29.86 "HgN/A
5:20 AM57 °FClear.7 mph82%29.89 "Hg10 mi
4:50 AM59 °FClear.2 mph82%29.86 "Hg10 mi
4:20 AM63 °FClear.1 mph73%29.86 "Hg10 mi
3:50 AM61 °FClear.1 mph77%29.89 "Hg10 mi
3:20 AM61 °FClear.1 mph77%29.89 "Hg10 mi
2:50 AM63 °FClear.1 mph73%29.89 "Hg10 mi
2:20 AM63 °FClear.2 mph73%29.89 "Hg10 mi
1:50 AM61 °FClear.5 mph77%29.92 "Hg10 mi
1:20 AM63 °FClear.2 mph77%29.89 "Hg10 mi
12:50 AM63 °FClear.1 mph77%29.89 "Hg10 mi
12:20 AM64 °FClear.2 mph73%29.89 "Hg10 mi
11:50 PM
Sun, Apr 26
63 °FPassing clouds.3 mph77%29.89 "HgN/A
11:20 PM64 °FClear.3 mph78%29.92 "Hg10 mi
10:50 PM64 °FClear.2 mph78%29.92 "Hg10 mi
10:20 PM64 °FClear.1 mph73%29.92 "Hg10 mi
9:50 PM64 °FPassing clouds.3 mph78%29.92 "HgN/A
9:20 PM64 °FClear.7 mph88%29.92 "Hg10 mi
8:50 PM66 °FSunny.7 mph83%29.92 "Hg10 mi
8:20 PM66 °FSunny.7 mph83%29.92 "Hg10 mi
7:50 PM68 °FSunny.3 mph69%29.95 "Hg10 mi
7:20 PM70 °FSunny.6 mph64%29.92 "Hg10 mi
6:50 PM70 °FSunny.9 mph64%29.92 "Hg10 mi
6:20 PM72 °FSunny.12 mph61%29.92 "Hg10 mi
5:50 PM70 °FSunny.10 mph69%29.95 "Hg10 mi
5:20 PM68 °FSunny.13 mph83%29.95 "Hg10 mi
Weather by CustomWeather, © 2015

See weather overviewHow to use our weather pages